When you browse on this site, cookies collect data to enhance your experience and personalize the content and advertising you see.
Visit our Privacy Policy to learn more. By continuing to use the site, you agree to this use of cookies and data.
  • In Germany
  • List of Countries
  • For 7 days
  • Water Temperature
  • Weather Map
  • Weather Widgets
  • user-avatar
    Login

    Hourly Weather Trowbridge

    Today, 25 January, Saturday

    Time Temperature Precipitation Wind Pressure Humidity
    00:00 +7°C° 0 mm 1 mps 762 mmHg 90%
    01:00 +6°C° 0 mm 1 mps 761 mmHg 91%
    02:00 +6°C° 0 mm 1 mps 761 mmHg 92%
    03:00 +5°C° 0 mm 1 mps 761 mmHg 93%
    04:00 +5°C° 0 mm 1 mps 760 mmHg 93%
    05:00 +4°C° 0 mm 1 mps 760 mmHg 94%
    06:00 +3°C° 0 mm 2 mps 760 mmHg 95%
    07:00 +3°C° 0 mm 2 mps 760 mmHg 95%
    08:00 +3°C° 0 mm 2 mps 760 mmHg 95%
    09:00 +4°C° 0 mm 2 mps 760 mmHg 95%
    10:00 +4°C° 0 mm 3 mps 759 mmHg 92%
    11:00 +5°C° 0 mm 3 mps 759 mmHg 90%
    12:00 +7°C° 0 mm 3 mps 759 mmHg 87%
    13:00 +8°C° 0 mm 3 mps 759 mmHg 89%
    14:00 +8°C° 0 mm 3 mps 758 mmHg 90%
    15:00 +8°C° 0 mm 3 mps 757 mmHg 92%
    16:00 +7°C° 0 mm 3 mps 757 mmHg 93%
    17:00 +7°C° 0 mm 3 mps 757 mmHg 94%
    18:00 +7°C° 0 mm 3 mps 757 mmHg 95%
    19:00 +7°C° 0 mm 3 mps 757 mmHg 95%
    20:00 +7°C° 0 mm 3 mps 756 mmHg 95%
    21:00 +7°C° 0 mm 3 mps 756 mmHg 95%
    22:00 +7°C° 0 mm 3 mps 756 mmHg 96%
    23:00 +7°C° 0 mm 3 mps 755 mmHg 96%

    Tomorrow, 26 January, Sunday

    Time Temperature Precipitation Wind Pressure Humidity
    00:00 +7°C° 0 mm 3 mps 755 mmHg 96%
    01:00 +7°C° 0 mm 3 mps 755 mmHg 96%
    02:00 +5°C° 0 mm 3 mps 754 mmHg 96%
    03:00 +5°C° 0 mm 3 mps 754 mmHg 96%
    04:00 +5°C° 0 mm 3 mps 754 mmHg 95%
    05:00 +5°C° 0 mm 3 mps 753 mmHg 95%
    06:00 +4°C° 0 mm 3 mps 753 mmHg 94%
    07:00 +5°C° 0 mm 4 mps 753 mmHg 94%
    08:00 +5°C° 0 mm 4 mps 753 mmHg 94%
    09:00 +5°C° 0 mm 4 mps 753 mmHg 94%
    10:00 +6°C° 0.2 mm 5 mps 752 mmHg 92%
    11:00 +7°C° 0.2 mm 6 mps 752 mmHg 91%
    12:00 +8°C° 0.2 mm 7 mps 752 mmHg 89%
    13:00 +8°C° 1.5 mm 6 mps 751 mmHg 91%
    14:00 +8°C° 1.5 mm 6 mps 751 mmHg 92%
    15:00 +8°C° 1.5 mm 5 mps 751 mmHg 94%
    16:00 +7°C° 1.3 mm 4 mps 750 mmHg 94%
    17:00 +8°C° 1.3 mm 3 mps 750 mmHg 95%
    18:00 +7°C° 1.3 mm 2 mps 750 mmHg 96%
    19:00 +7°C° 0.2 mm 2 mps 750 mmHg 95%
    20:00 +6°C° 0.2 mm 2 mps 750 mmHg 95%
    21:00 +6°C° 0.2 mm 2 mps 750 mmHg 95%
    22:00 +4°C° 0 mm 3 mps 750 mmHg 95%
    23:00 +4°C° 0 mm 3 mps 750 mmHg 94%

    Day after tomorrow, 27 January, Monday

    Time Temperature Precipitation Wind Pressure Humidity
    00:00 +4°C° 0 mm 3 mps 750 mmHg 94%
    01:00 +4°C° 0 mm 4 mps 749 mmHg 93%
    02:00 +4°C° 0 mm 4 mps 749 mmHg 93%
    03:00 +4°C° 0 mm 4 mps 749 mmHg 92%
    04:00 +3°C° 0 mm 5 mps 748 mmHg 91%
    05:00 +5°C° 0 mm 5 mps 748 mmHg 91%
    06:00 +5°C° 0 mm 5 mps 747 mmHg 90%
    07:00 +5°C° 0 mm 5 mps 747 mmHg 90%
    08:00 +5°C° 0 mm 5 mps 747 mmHg 90%
    09:00 +5°C° 0 mm 5 mps 747 mmHg 91%
    10:00 +5°C° 0.1 mm 5 mps 747 mmHg 87%
    11:00 +6°C° 0.1 mm 5 mps 747 mmHg 83%
    12:00 +7°C° 0.1 mm 6 mps 746 mmHg 79%
    13:00 +6°C° 0.2 mm 5 mps 746 mmHg 80%
    14:00 +6°C° 0.2 mm 4 mps 745 mmHg 81%
    15:00 +6°C° 0.2 mm 4 mps 745 mmHg 81%
    16:00 +5°C° 0.2 mm 4 mps 744 mmHg 85%
    17:00 +4°C° 0.2 mm 3 mps 743 mmHg 88%
    18:00 +4°C° 0.2 mm 3 mps 743 mmHg 91%
    19:00 +4°C° 0.2 mm 4 mps 742 mmHg 91%
    20:00 +4°C° 0.2 mm 4 mps 741 mmHg 91%
    21:00 +4°C° 0.2 mm 4 mps 740 mmHg 91%
    22:00 +2°C° 0.6 mm 5 mps 740 mmHg 91%
    23:00 +2°C° 0.6 mm 5 mps 739 mmHg 92%

    28 January, Tuesday

    Time Temperature Precipitation Wind Pressure Humidity
    00:00 +2°C° 0.6 mm 6 mps 738 mmHg 92%
    01:00 +2°C° 0.1 mm 6 mps 739 mmHg 90%
    02:00 +2°C° 0.1 mm 6 mps 739 mmHg 88%
    03:00 0°C° 0.1 mm 7 mps 740 mmHg 85%
    04:00 +1°C° 0 mm 6 mps 741 mmHg 83%
    05:00 -1°C° 0 mm 6 mps 741 mmHg 81%
    06:00 0°C° 0 mm 5 mps 742 mmHg 79%
    07:00 0°C° 0 mm 5 mps 743 mmHg 80%
    08:00 0°C° 0 mm 5 mps 744 mmHg 81%
    09:00 0°C° 0 mm 4 mps 744 mmHg 82%
    10:00 +1°C° 0.2 mm 6 mps 745 mmHg 81%
    11:00 +2°C° 0.2 mm 7 mps 745 mmHg 80%
    12:00 +2°C° 0.2 mm 9 mps 745 mmHg 79%
    13:00 +2°C° 0.3 mm 8 mps 745 mmHg 77%
    14:00 +2°C° 0.3 mm 8 mps 746 mmHg 76%
    15:00 +3°C° 0.3 mm 7 mps 746 mmHg 74%
    16:00 +2°C° 0.1 mm 7 mps 746 mmHg 76%
    17:00 +2°C° 0.1 mm 6 mps 746 mmHg 78%
    18:00 +1°C° 0.1 mm 6 mps 747 mmHg 81%
    19:00 +1°C° 0 mm 5 mps 747 mmHg 81%
    20:00 0°C° 0 mm 5 mps 748 mmHg 80%
    21:00 0°C° 0 mm 5 mps 749 mmHg 80%
    22:00 0°C° 0 mm 5 mps 749 mmHg 81%
    23:00 0°C° 0 mm 5 mps 750 mmHg 81%

    29 January, Wednesday

    Time Temperature Precipitation Wind Pressure Humidity
    00:00 0°C° 0 mm 5 mps 750 mmHg 81%
    01:00 -1°C° 0 mm 4 mps 751 mmHg 81%
    02:00 -1°C° 0 mm 4 mps 751 mmHg 81%
    03:00 -1°C° 0 mm 4 mps 752 mmHg 81%
    04:00 -1°C° 0 mm 4 mps 752 mmHg 82%
    05:00 -1°C° 0 mm 4 mps 753 mmHg 83%
    06:00 -1°C° 0 mm 4 mps 753 mmHg 83%
    07:00 0°C° 0 mm 4 mps 754 mmHg 83%
    08:00 +1°C° 0 mm 3 mps 754 mmHg 84%
    09:00 +1°C° 0 mm 3 mps 755 mmHg 84%
    10:00 +3°C° 0 mm 4 mps 755 mmHg 81%
    11:00 +3°C° 0 mm 5 mps 755 mmHg 78%
    12:00 +6°C° 0 mm 5 mps 756 mmHg 74%
    13:00 +6°C° 0 mm 5 mps 756 mmHg 76%
    14:00 +6°C° 0 mm 4 mps 756 mmHg 78%
    15:00 +6°C° 0 mm 4 mps 756 mmHg 79%
    16:00 +5°C° 0 mm 3 mps 756 mmHg 83%
    17:00 +4°C° 0 mm 3 mps 756 mmHg 87%
    18:00 +3°C° 0 mm 3 mps 756 mmHg 90%
    19:00 +3°C° 0 mm 3 mps 756 mmHg 91%
    20:00 +3°C° 0 mm 3 mps 757 mmHg 92%
    21:00 +3°C° 0 mm 3 mps 757 mmHg 93%
    22:00 +3°C° 0 mm 3 mps 757 mmHg 93%
    23:00 +3°C° 0 mm 3 mps 757 mmHg 93%

    30 January, Thursday

    Time Temperature Precipitation Wind Pressure Humidity
    00:00 +3°C° 0 mm 3 mps 757 mmHg 92%
    01:00 +3°C° 0 mm 3 mps 756 mmHg 93%
    02:00 +3°C° 0 mm 3 mps 756 mmHg 94%
    03:00 +3°C° 0 mm 3 mps 756 mmHg 95%
    04:00 +3°C° 0 mm 3 mps 755 mmHg 95%
    05:00 +3°C° 0 mm 3 mps 755 mmHg 96%
    06:00 +4°C° 0 mm 2 mps 755 mmHg 96%
    07:00 +3°C° 0 mm 3 mps 754 mmHg 96%
    08:00 +4°C° 0 mm 3 mps 754 mmHg 95%
    09:00 +4°C° 0 mm 4 mps 754 mmHg 95%
    10:00 +5°C° 0.5 mm 4 mps 753 mmHg 94%
    11:00 +5°C° 0.5 mm 5 mps 752 mmHg 93%
    12:00 +6°C° 0.5 mm 5 mps 752 mmHg 92%
    13:00 +6°C° 0.2 mm 5 mps 751 mmHg 94%
    14:00 +6°C° 0.2 mm 5 mps 750 mmHg 95%
    15:00 +6°C° 0.2 mm 4 mps 750 mmHg 96%
    16:00 +6°C° 0 mm 4 mps 750 mmHg 97%
    17:00 +8°C° 0 mm 3 mps 749 mmHg 98%
    18:00 +8°C° 0 mm 3 mps 749 mmHg 98%
    19:00 +8°C° 0 mm 2 mps 749 mmHg 98%
    20:00 +8°C° 0 mm 2 mps 749 mmHg 98%
    21:00 +9°C° 0 mm 2 mps 749 mmHg 98%
    22:00 +9°C° 0 mm 2 mps 750 mmHg 98%
    23:00 +9°C° 0 mm 2 mps 750 mmHg 98%
    Show more